DW8847 Weather Reports


Display with metric or nautical units.
time (UTC)temp
F
wind
direction
speed
MPH
gust
MPH
rain 1hr
in
rain 24hr
in
rain mn
in
humidity
%
barometer
mb
20260831101603 86 50 0.0 2.0 0.00 0.00 0.00 55 1013.2
20260831100106 85 229 0.0 3.0 0.00 0.00 0.00 53 1013.4
20260831094614 85 135 0.0 2.0 0.00 0.00 0.00 50 1013.5
20260831093053 86 135 0.0 1.0 0.00 0.00 0.00 54 1013.7
20260831091548 85 63 0.0 3.0 0.00 0.00 0.00 50 1013.7
20260831090045 84 69 0.0 2.0 0.00 0.00 0.00 53 1013.7
20260831084545 83 72 0.0 3.0 0.00 0.00 0.00 56 1013.6
20260831083036 82 67 0.0 2.0 0.00 0.00 0.00 57 1013.5
20260831081537 82 67 0.0 2.0 0.00 0.00 0.00 57 1013.5
20260831080028 81 64 0.0 2.0 0.00 0.00 0.00 64 1013.4
20260831074528 80 42 1.0 3.0 0.00 0.00 0.00 63 1013.3
20260831073021 79 59 0.0 3.0 0.00 0.00 0.00 66 1013.2
20260831071516 78 57 0.0 2.0 0.00 0.00 0.00 68 1013.3
20260831070014 76 57 0.0 3.0 0.00 0.00 0.00 70 1013.2
20260831064508 74 62 0.0 3.0 0.00 0.00 0.00 73 1013.1
20260831063004 73 63 1.0 3.0 0.00 0.00 0.00 74 1013.2
20260831061600 72 260 0.0 2.0 0.00 0.00 0.00 77 1013.2
20260831060104 70 242 0.0 2.0 0.00 0.00 0.00 81 1013.2
20260831054551 69 242 0.0 2.0 0.00 0.00 0.00 81 1013.0
20260831053052 67 242 0.0 2.0 0.00 0.00 0.00 82 1012.8
20260831051545 65 242 0.0 0.0 0.00 0.00 0.00 84 1012.7
20260831050043 63 242 0.0 2.0 0.00 0.00 0.00 88 1012.7
20260831044547 62 242 0.0 0.0 0.00 0.00 0.00 89 1012.7
20260831043043 62 242 0.0 0.0 0.00 0.00 0.00 89 1012.7
20260831041542 62 242 0.0 0.0 0.00 0.00 0.00 89 1012.8
20260831040038 62 242 0.0 0.0 0.00 0.00 0.00 89 1012.7
20260831034537 62 242 0.0 0.0 0.00 0.00 0.00 89 1012.8
20260831033046 62 242 0.0 0.0 0.00 0.00 0.00 89 1012.8
20260831031535 63 242 0.0 0.0 0.00 0.00 0.00 88 1012.9
20260831030032 64 242 0.0 0.0 0.00 0.00 0.00 86 1012.9
20260831024530 64 242 0.0 0.0 0.00 0.00 0.00 86 1013.0
20260831023035 65 242 0.0 0.0 0.00 0.00 0.00 85 1012.9
20260831021536 66 242 0.0 0.0 0.00 0.00 0.00 82 1012.8
20260831020054 66 242 0.0 0.0 0.00 0.00 0.00 82 1012.9
20260831014526 66 242 0.0 2.0 0.00 0.00 0.00 81 1012.9
20260831013027 66 242 0.0 2.0 0.00 0.00 0.00 81 1013.0
20260831011527 66 242 0.0 2.0 0.00 0.00 0.00 83 1013.1
20260831010024 65 242 0.0 2.0 0.00 0.00 0.00 84 1012.9
20260831004523 65 242 0.0 1.0 0.00 0.00 0.00 85 1013.0
20260831003021 65 242 0.0 1.0 0.00 0.00 0.00 86 1013.2
20260831001526 65 242 0.0 2.0 0.00 0.00 0.00 85 1013.2
20260831000021 65 242 0.0 2.0 0.00 0.00 0.00 85 1013.2
20260830234533 66 235 1.0 2.0 0.00 0.00 0.00 86 1013.2
20260830233017 66 234 0.0 2.0 0.00 0.00 0.00 86 1013.3
20260830231519 65 234 0.0 2.0 0.00 0.00 0.00 87 1013.2
20260830230012 67 228 0.0 0.0 0.00 0.00 0.00 84 1013.3
20260830224509 68 228 0.0 0.0 0.00 0.00 0.00 82 1013.4
20260830223005 69 228 0.0 0.0 0.00 0.00 0.00 79 1013.5
20260830221504 69 228 0.0 2.0 0.00 0.00 0.00 78 1013.4
20260830220003 69 228 0.0 2.0 0.00 0.00 0.00 79 1013.4
20260830214502 70 230 0.0 0.0 0.00 0.00 0.00 79 1013.3
20260830213003 70 230 0.0 2.0 0.00 0.00 0.00 78 1013.2
20260830211502 70 230 0.0 2.0 0.00 0.00 0.00 80 1013.1
20260830210001 69 229 0.0 2.0 0.00 0.00 0.00 82 1013.1
20260830204501 70 229 0.0 2.0 0.00 0.00 0.00 82 1013.0
20260830203108 70 229 0.0 2.0 0.00 0.00 0.00 81 1013.0
20260830201603 69 229 0.0 0.0 0.00 0.00 0.00 85 1012.9
20260830200059 70 229 0.0 0.0 0.00 0.00 0.00 84 1012.9
20260830194559 71 229 0.0 0.0 0.00 0.00 0.00 82 1013.0
20260830193059 72 229 0.0 0.0 0.00 0.00 0.00 80 1012.9
20260830191558 72 225 0.0 2.0 0.00 0.00 0.00 81 1012.9
20260830190058 73 225 0.0 2.0 0.00 0.00 0.00 81 1012.8
20260830184607 75 225 0.0 0.0 0.00 0.00 0.00 79 1012.7
20260830183058 76 225 0.0 0.0 0.00 0.00 0.00 76 1012.3
20260830181559 78 225 0.0 0.0 0.00 0.00 0.00 72 1012.2
20260830180057 79 225 0.0 0.0 0.00 0.00 0.00 67 1012.0
20260830174600 82 225 0.0 0.0 0.00 0.00 0.00 63 1012.0
20260830173054 84 225 0.0 0.0 0.00 0.00 0.00 53 1011.9
20260830171554 87 225 0.0 0.0 0.00 0.00 0.00 55 1011.9
20260830170053 88 225 0.0 0.0 0.00 0.00 0.00 51 1012.1
20260830164552 89 225 0.0 0.0 0.00 0.00 0.00 52 1012.1
20260830163052 89 225 0.0 2.0 0.00 0.00 0.00 49 1012.1
20260830161605 89 225 0.0 0.0 0.00 0.00 0.00 47 1012.2
20260830160049 89 225 0.0 2.0 0.00 0.00 0.00 46 1012.3
20260830154550 89 225 0.0 2.0 0.00 0.00 0.00 45 1012.3
20260830153056 90 225 0.0 2.0 0.00 0.00 0.00 38 1012.3
20260830151553 90 225 0.0 2.0 0.00 0.00 0.00 42 1012.4
20260830150047 90 225 0.0 1.0 0.00 0.00 0.00 41 1012.3
20260830144541 92 225 0.0 0.0 0.00 0.00 0.00 40 1012.5
20260830143045 89 225 0.0 2.0 0.00 0.00 0.00 43 1012.6
20260830141539 89 200 1.0 3.0 0.00 0.00 0.00 43 1012.7
20260830140040 88 198 0.0 4.0 0.00 0.00 0.00 46 1012.8
20260830134538 91 46 0.0 0.0 0.00 0.00 0.00 45 1012.8
20260830133035 90 46 0.0 2.0 0.00 0.00 0.00 39 1013.0
20260830131536 88 227 0.0 3.0 0.00 0.00 0.00 45 1013.1
20260830130031 90 80 0.0 2.0 0.00 0.00 0.00 41 1013.2
20260830124530 89 80 1.0 3.0 0.00 0.00 0.00 45 1013.2
20260830123029 88 65 0.0 3.0 0.00 0.00 0.00 47 1013.2
20260830121528 89 28 0.0 2.0 0.00 0.00 0.00 46 1013.3
20260830120027 87 71 2.0 4.0 0.00 0.00 0.00 43 1013.4
20260830114552 89 80 0.0 2.0 0.00 0.00 0.00 40 1013.5
20260830113024 88 99 0.0 2.0 0.00 0.00 0.00 44 1013.4
20260830111525 88 170 0.0 3.0 0.00 0.00 0.00 44 1013.4
20260830110021 88 134 0.0 2.0 0.00 0.00 0.00 44 1013.6
20260830104518 86 130 0.0 2.0 0.00 0.00 0.00 50 1013.8
20260830103017 88 66 0.0 2.0 0.00 0.00 0.00 51 1013.8